New Castle, DE

3:26 PM EDT on September 26, 2016 (GMT -0400)
New Castle County

Weather History for KILG - February, 2014

Change the Weather History Date:

Thursday, February 6, 2014

  Actual Average Record
Temperature  
Mean Temperature 28 °F 34 °F  
Max Temperature 32 °F 42 °F 71 °F (2008)
Min Temperature 24 °F 26 °F -3 °F (1918)
Degree Days  
Heating Degree Days 37 31  
Month to date heating degree days 183 191  
Since 1 July heating degree days 3104 2978  
Cooling Degree Days 0 0  
Month to date cooling degree days 0 0  
Year to date cooling degree days 0 0  
Moisture  
Dew Point 15 °F    
Average Humidity 59    
Maximum Humidity 68    
Minimum Humidity 49    
Precipitation  
Precipitation 0.00 in 0.10 in 2.67 in (1896)
Month to date precipitation 2.56 0.59  
Year to date precipitation 5.79 3.60  
Snow  
Snow 0.00 in 0.30 in 19.40 in (2010)
Month to date snowfall 1.0 2.0  
Since 1 July snowfall 30.4 11.7  
Snow Depth 0.00 in    
Sea Level Pressure  
Sea Level Pressure 30.28 in    
Wind  
Wind Speed 10 mph (NW)    
Max Wind Speed 26 mph    
Max Gust Speed 34 mph    
Visibility 10 miles    
Events      
T = Trace of Precipitation, MM = Missing Value Source: NWS Daily Summary

Daily Weather History Graph

Daily Weather History Graph

Search for Another Location

Airport or City:

Trip Planner

Search our weather history database for the weather conditions in past years. The results will help you decide how hot, cold, wet, or windy it might be!

Date:

Astronomy

Feb. 06, 2014 Rise Set
Actual Time 7:05 AM EST 5:28 PM EST
Civil Twilight 6:37 AM EST 5:56 PM EST
Nautical Twilight 6:05 AM EST 6:28 PM EST
Astronomical Twilight 5:33 AM EST 6:59 PM EST
Moon 10:58 AM EST (2/6) 12:18 AM EST (2/6)
Length of Visible Light 11h 19m
Length of Day
10h 22m
Waxing Crescent, 49% of the Moon is Illuminated
Feb 6
Waxing Crescent
Feb 6
First Quarter
Feb 14
Full
Feb 22
Last Quarter
Mar 1
New

Hourly Weather History & Observations

Time (EST) Temp. Windchill Dew Point Humidity Pressure Visibility Wind Dir Wind Speed Gust Speed Precip Events Conditions
12:51 AM 30.0 °F 16.0 °F 19.0 °F 64% 30.08 in 10.0 mi NNW 25.3 mph 31.1 mph N/A   Clear
1:51 AM 28.0 °F 14.9 °F 17.1 °F 63% 30.12 in 10.0 mi NNW 19.6 mph 26.5 mph N/A   Clear
2:51 AM 27.0 °F 14.7 °F 16.0 °F 63% 30.19 in 10.0 mi NW 16.1 mph 24.2 mph N/A   Mostly Cloudy
3:51 AM 26.1 °F 14.5 °F 16.0 °F 66% 30.21 in 10.0 mi NNW 13.8 mph 20.7 mph N/A   Partly Cloudy
4:51 AM 26.1 °F 15.0 °F 15.1 °F 63% 30.24 in 10.0 mi NNW 12.7 mph - N/A   Clear
5:51 AM 25.0 °F 12.6 °F 14.0 °F 63% 30.27 in 10.0 mi NNW 15.0 mph 23.0 mph N/A   Clear
6:51 AM 24.1 °F 12.5 °F 12.9 °F 62% 30.29 in 10.0 mi NNW 12.7 mph 20.7 mph N/A   Clear
7:51 AM 24.1 °F 11.5 °F 12.9 °F 62% 30.31 in 10.0 mi NNW 15.0 mph - N/A   Clear
8:51 AM 26.1 °F 14.5 °F 14.0 °F 60% 30.33 in 10.0 mi NNW 13.8 mph 20.7 mph N/A   Clear
9:51 AM 27.0 °F 18.0 °F 12.9 °F 56% 30.34 in 10.0 mi NNW 9.2 mph - N/A   Clear
10:51 AM 28.0 °F 18.1 °F 12.9 °F 53% 30.35 in 10.0 mi NNW 11.5 mph - N/A   Clear
11:51 AM 28.9 °F 19.2 °F 14.0 °F 54% 30.33 in 10.0 mi NW 11.5 mph - N/A   Clear
12:51 PM 30.0 °F 22.4 °F 14.0 °F 51% 30.30 in 10.0 mi NNW 8.1 mph - N/A   Clear
1:51 PM 30.0 °F 22.4 °F 14.0 °F 51% 30.31 in 10.0 mi NNW 8.1 mph - N/A   Clear
2:51 PM 30.9 °F 22.2 °F 14.0 °F 50% 30.30 in 10.0 mi NNW 10.4 mph - N/A   Clear
3:51 PM 30.9 °F 22.8 °F 15.1 °F 52% 30.30 in 10.0 mi NNW 9.2 mph - N/A   Clear
4:51 PM 30.0 °F 22.4 °F 15.1 °F 54% 30.30 in 10.0 mi NW 8.1 mph - N/A   Clear
5:51 PM 26.1 °F 19.4 °F 14.0 °F 60% 30.30 in 10.0 mi WNW 5.8 mph - N/A   Clear
6:51 PM 27.0 °F - 15.1 °F 61% 30.30 in 10.0 mi Calm Calm - N/A   Clear
7:51 PM 28.0 °F - 16.0 °F 61% 30.30 in 10.0 mi Calm Calm - N/A   Clear
8:51 PM 27.0 °F - 17.1 °F 66% 30.31 in 10.0 mi Calm Calm - N/A   Clear
9:51 PM 27.0 °F 23.0 °F 18.0 °F 69% 30.32 in 10.0 mi SW 3.5 mph - N/A   Clear
10:51 PM 27.0 °F 21.6 °F 18.0 °F 69% 30.32 in 10.0 mi WSW 4.6 mph - N/A   Clear
11:51 PM 27.0 °F 21.6 °F 18.0 °F 69% 30.32 in 10.0 mi West 4.6 mph - N/A   Clear